STARLINK-32576

decayed
NORAD ID: 62318 Int'l Des: 2024-239 Owner: SPXS Country: US Constellation: starlink
LEOCIRCULAR
Gruppe

Über STARLINK-32576

Beschreibung wird geladen...

Höhenverlauf

Altitude vs Time

uPlot chart will show altitude changes over time

Zweizeiliger Elementsatz

1 62318U 24239T 25200.44941007 .21308689 11973-4 46790-2 0 9998
2 62318 53.1223 180.5095 0006381 204.5211 296.6335 16.29655350 33900
Epoch: 19. Juli 2025 • Age: 1465 hours

Aktueller Status

Position data unavailable
Startdatum 13. Dez. 2024
Alter 0.7 years
Verglühungsdatum 19. Juli 2025
Typ internet

Technische Details

Klassifizierung Payload
Masse 730.00 kg
Trockenmasse 700.00 kg
Gesamtmasse 730.00 kg
Länge 0.30 m
Durchmesser 4.10 m
Spannweite 29.00 m
Form Box + pan
Hersteller SPXS
Bus-Typ Starlink V2M
Phasenstatus Unknown Transfer Status
Besitzer/Staat SPXS/US

Große Konstellationen

Loading constellations...